Weather History for FBSK - February, 2013

Change the Weather History Date:

Wednesday, February 20, 2013

  Actual Average Record
Temperature  
Mean Temperature 81 °F -  
Max Temperature 89 °F 84 °F 100 °F (2015)
Min Temperature 73 °F 63 °F 32 °F (2004)
Cooling Degree Days 16    
Growing Degree Days 31 (Base 50)    
Moisture  
Dew Point 55 °F    
Average Humidity 40    
Maximum Humidity 65    
Minimum Humidity 26    
Precipitation  
Precipitation 0.00 in - - ()
Sea Level Pressure  
Sea Level Pressure 29.94 in    
Wind  
Wind Speed 6 mph ()    
Max Wind Speed 14 mph    
Max Gust Speed -    
Visibility 6.2 miles    
Events      
Averages and records for this station are not official NWS values.
T = Trace of Precipitation, MM = Missing Value Source: Averaged Metar Reports

Daily Weather History Graph

Daily Weather History Graph

Search for Another Location

Airport or City:

Trip Planner

Search our weather history database for the weather conditions in past years. The results will help you decide how hot, cold, wet, or windy it might be!

Date:

Astronomy

Feb. 20, 2013 Rise Set
Actual Time 6:06 AM CAT 6:53 PM CAT
Civil Twilight 5:42 AM CAT 7:16 PM CAT
Nautical Twilight 5:15 AM CAT 7:44 PM CAT
Astronomical Twilight 4:47 AM CAT 8:12 PM CAT
Moon 2:57 PM CAT (2/20) 1:11 AM CAT (2/20)
Length of Visible Light 13h 34m
Length of Day
12h 47m
Waxing Gibbous, 73% of the Moon is Illuminated
Feb 20
Waxing Gibbous
Feb 25
Full
Mar 4
Last Quarter
Mar 11
New
Mar 19
First Quarter

Hourly Weather History & Observations

Time (CAT) Temp. Heat Index Dew Point Humidity Pressure Visibility Wind Dir Wind Speed Gust Speed Precip Events Conditions
1:00 AM 80.6 °F 80.5 °F 55.4 °F 42% 29.89 in - ESE 6.9 mph - N/A   Clear
3:00 AM 77.0 °F - 59.0 °F 54% 29.89 in - Calm Calm - N/A   Clear
4:00 AM 73.4 °F - 60.8 °F 65% 29.89 in - Variable 1.2 mph - N/A   Clear
5:00 AM 73.4 °F - 60.8 °F 65% 29.89 in - Variable 2.3 mph - N/A   Clear
6:00 AM 75.2 °F - 59.0 °F 57% 29.92 in - SSW 8.1 mph - N/A   Clear
7:00 AM 78.8 °F - 55.4 °F 44% 29.92 in - SSW 8.1 mph - N/A   Clear
8:00 AM 80.6 °F 80.8 °F 57.2 °F 45% 29.95 in - ESE 6.9 mph - N/A   Clear
9:00 AM 80.6 °F 81.1 °F 59.0 °F 48% 29.98 in - WSW 11.5 mph - N/A   Clear
10:00 AM 87.8 °F - 51.8 °F 29% 29.98 in - SSW 12.7 mph - N/A   Clear
11:00 AM 89.6 °F - 51.8 °F 27% 29.98 in - SSW 9.2 mph - N/A   Clear
12:00 PM 89.6 °F - 50.0 °F 26% 29.98 in - SSW 12.7 mph - N/A   Clear
1:00 PM 89.6 °F - 51.8 °F 27% 29.95 in 6.2 mi South 12.7 mph - N/A   Partly Cloudy
2:00 PM 86.0 °F - 50.0 °F 29% 30.21 in 6.2 mi SSW 12.7 mph - N/A   Mostly Cloudy
3:00 PM 86.0 °F - 50.0 °F 29% 29.92 in 6.2 mi SSW 13.8 mph - N/A   Mostly Cloudy
4:00 PM 86.0 °F - 51.8 °F 31% 29.89 in 6.2 mi SSW 10.4 mph - N/A   Mostly Cloudy
5:00 PM 86.0 °F - 51.8 °F 31% 29.89 in 6.2 mi SW 9.2 mph - N/A   Mostly Cloudy
6:00 PM 86.0 °F - 51.8 °F 31% 29.89 in 6.2 mi WSW 5.8 mph - N/A   Mostly Cloudy
7:00 PM 82.4 °F 81.7 °F 55.4 °F 39% 29.92 in 6.2 mi SSW 4.6 mph - N/A   Mostly Cloudy
8:00 PM 77.0 °F - 55.4 °F 47% 29.92 in 6.2 mi West 3.5 mph - N/A   Mostly Cloudy
9:00 PM 82.4 °F 81.7 °F 55.4 °F 39% 29.95 in - SSW 6.9 mph - N/A   Clear
10:00 PM 80.6 °F 80.8 °F 57.2 °F 45% 29.95 in - South 4.6 mph - N/A   Clear
11:00 PM - - - N/A% 29.98 in - SSE 5.8 mph - N/A   Clear